Location: Marsån
(66.4167°N, 22.2833°E)
Time: 10:26:42
(UTC+00:00)

Cosmos 2251 Rocket - Pass Details

Date: 24 February 2024
Orbit: 764 x 789 km, 74.0° (Epoch: 15 April)

Event Time Altitude Azimuth Distance (km) Brightness Sun altitude
Rises 16:10:51 0° 202° (SSW) 3,276 7.3 -5.4°
Reaches altitude 10° 16:13:16 10° 199° (SSW) 2,347 6.5 -5.6°
Maximum altitude 16:18:30 59° 121° (ESE) 903 3.7 -6.1°
Drops below altitude 10° 16:23:44 10° 43° (NE) 2,343 5.6 -6.6°
Sets 16:26:08 0° 40° (NE) 3,270 6.3 -6.9°
Enters shadow 16:26:19 -1° 40° (NE) 3,341 6.4 -6.9°
